Tracking 28514 objects as of 23-Feb-2024
HD Live streaming from Space Station
objects crossing your sky now

STARLINK-1736

Track STARLINK-1736 now!
10-day predictions
STARLINK-1736 is classified as:


NORAD ID: 46585
Int'l Code: 2020-070BF
Perigee: 553.6 km
Apogee: 555.4 km
Inclination: 53.1 °
Period: 95.6 minutes
Semi major axis: 6925 km
RCS: Unknown
Launch date: October 6, 2020
Source: United States (US)
Launch site: AIR FORCE EASTERN TEST RANGE (AFETR)
Your satellite tracking list
Your tracking list is empty




NASA's NSSDC Master Catalog

Two Line Element Set (TLE):
1 46585U 20070BF  24054.00001157  .00043770  00000-0  29427-2 0  9993
2 46585  53.0519 264.4970 0001248  83.2751 347.6347 15.06355648  5862
Source of the keplerian elements: AFSPC